User: anonymous   Login
Location: Unspecified
(0.0000°N, 0.0000°E)
Time: 08:58:12
(UTC+00:00)
Language:

STARLINK-35434 - Orbit

View from above orbital plane
View from above orbital plane
View from above satellite
View from above satellite

Ground track
Ground track

The orbit is defined by the following mean orbital elements,

1 66246U          26145.40459875 +.00000000 +00000-0 +75124-3 0 00009
2 66246  53.1599 287.4362 0001226 107.2760 252.8375 15.31718239    06
Epoch (UTC): 25 May 2026 09:42:37
Eccentricity: 0.0001226
inclination: 53.1599°
perigee height: 470 km
apogee height: 472 km
right ascension of ascending node: 287.4362°
argument of perigee: 107.2760°
revolutions per day: 15.31718239
mean anomaly at epoch: 252.8375°

The dashed part of the orbit path shows where the satellite is in the earth's shadow,  

DLR